Madison, MN

6:16 AM CDT on October 14, 2019 (GMT -0500)
Madison-Lac Qui Parle County

Weather History for KDXX - August, 2019

Change the Weather History Date:

Friday, August 23, 2019

  Actual Average (KAQP) Record (KAQP)
Temperature  
Mean Temperature 64 °F -  
Max Temperature 78 °F 77 °F 91 °F (2003)
Min Temperature 51 °F 55 °F 46 °F (2004)
Growing Degree Days 14 (Base 50)    
Moisture  
Dew Point 58 °F    
Average Humidity 78    
Maximum Humidity 100    
Minimum Humidity 54    
Precipitation  
Precipitation 0.00 in - - ()
Sea Level Pressure  
Sea Level Pressure 30.14 in    
Wind  
Wind Speed 7 mph (SE)    
Max Wind Speed 14 mph    
Max Gust Speed 18 mph    
Visibility 10 miles    
Events      
Averages and records for this station are not official NWS values.
T = Trace of Precipitation, MM = Missing Value Source: NWS Daily Summary

Daily Weather History Graph

Daily Weather History Graph

Search for Another Location

Airport or City:

Astronomy

Aug. 23, 2019 Rise Set
Actual Time 6:35 AM CDT 8:18 PM CDT
Civil Twilight 6:04 AM CDT 8:49 PM CDT
Nautical Twilight 5:26 AM CDT 9:26 PM CDT
Astronomical Twilight 4:45 AM CDT 10:07 PM CDT
Moon No Moon Rise 2:34 PM CDT (8/23)
Length of Visible Light 14h 44m
Length of Day
13h 42m
Waning Gibbous, 49% of the Moon is Illuminated
Aug 23
Waning Gibbous
Aug 30
New
Sep 5
First Quarter
Sep 13
Full
Sep 21
Last Quarter

Hourly Weather History & Observations

Time (CDT) Temp. Dew Point Humidity Pressure Visibility Wind Dir Wind Speed Gust Speed Precip Events Conditions
12:17 AM 57.2 °F 55.4 °F 94% 30.12 in 10.0 mi ESE 6.9 mph - N/A   Clear
12:36 AM 57.2 °F 53.6 °F 88% 30.12 in 10.0 mi SE 5.8 mph - N/A   Clear
12:55 AM 57.2 °F 51.8 °F 82% 30.11 in 10.0 mi ESE 5.8 mph - N/A   Clear
12:56 AM 57.2 °F 51.8 °F 82% 30.11 in 10.0 mi ESE 5.8 mph - N/A   Clear
1:15 AM 55.4 °F 53.6 °F 94% 30.11 in 10.0 mi ESE 5.8 mph - N/A   Clear
1:37 AM 57.2 °F 53.6 °F 88% 30.12 in 10.0 mi SE 3.5 mph - N/A   Clear
1:55 AM 57.2 °F 51.8 °F 82% 30.12 in 10.0 mi South 4.6 mph - N/A   Clear
2:15 AM 55.4 °F 51.8 °F 88% 30.11 in 10.0 mi SSE 4.6 mph - N/A   Clear
2:16 AM 55.4 °F 51.8 °F 88% 30.11 in 10.0 mi SE 4.6 mph - N/A   Clear
2:35 AM 55.4 °F 53.6 °F 94% 30.11 in 10.0 mi SE 3.5 mph - N/A   Clear
2:58 AM 53.6 °F 51.8 °F 94% 30.11 in 10.0 mi Calm Calm - N/A   Clear
3:17 AM 53.6 °F 51.8 °F 94% 30.11 in 10.0 mi Calm Calm - N/A   Clear
3:36 AM 53.6 °F 51.8 °F 94% 30.12 in 10.0 mi Calm Calm - N/A   Clear
3:55 AM 53.6 °F 51.8 °F 94% 30.13 in 10.0 mi East 4.6 mph - N/A   Clear
3:56 AM 53.6 °F 51.8 °F 94% 30.13 in 10.0 mi East 4.6 mph - N/A   Clear
4:15 AM 53.6 °F 51.8 °F 94% 30.13 in 10.0 mi East 3.5 mph - N/A   Clear
4:20 AM 53.6 °F 51.8 °F 94% 30.13 in 10.0 mi East 4.6 mph - N/A   Clear
4:37 AM 53.6 °F 51.8 °F 94% 30.14 in 10.0 mi East 4.6 mph - N/A   Clear
4:55 AM 53.6 °F 51.8 °F 94% 30.14 in 10.0 mi ESE 4.6 mph - N/A   Clear
5:15 AM 51.8 °F 51.8 °F 100% 30.13 in 10.0 mi East 5.8 mph - N/A   Clear
5:35 AM 53.6 °F 51.8 °F 94% 30.14 in 10.0 mi ESE 3.5 mph - N/A   Clear
5:36 AM 53.6 °F 51.8 °F 94% 30.14 in 10.0 mi ESE 4.6 mph - N/A   Clear
5:59 AM 53.6 °F 51.8 °F 94% 30.14 in 10.0 mi ESE 3.5 mph - N/A   Clear
6:16 AM 51.8 °F 51.8 °F 100% 30.15 in 10.0 mi East 4.6 mph - N/A   Clear
6:36 AM 53.6 °F 51.8 °F 94% 30.15 in 10.0 mi East 8.1 mph - N/A   Clear
6:55 AM 53.6 °F 51.8 °F 94% 30.14 in 10.0 mi ESE 6.9 mph - N/A   Clear
7:15 AM 55.4 °F 53.6 °F 94% 30.15 in 10.0 mi SE 4.6 mph - N/A   Clear
7:19 AM 55.4 °F 53.6 °F 94% 30.15 in 10.0 mi SSE 3.5 mph - N/A   Clear
7:37 AM 55.4 °F 53.6 °F 94% 30.16 in 10.0 mi SE 4.6 mph - N/A   Clear
7:56 AM 57.2 °F 55.4 °F 94% 30.17 in 10.0 mi SE 3.5 mph - N/A   Clear
8:15 AM 57.2 °F 55.4 °F 94% 30.17 in 10.0 mi SE 5.8 mph - N/A   Clear
8:16 AM 57.2 °F 55.4 °F 94% 30.16 in 10.0 mi SE 5.8 mph - N/A   Clear
8:35 AM 59.0 °F 55.4 °F 88% 30.17 in 10.0 mi SSE 4.6 mph - N/A   Clear
8:36 AM 59.0 °F 55.4 °F 88% 30.17 in 10.0 mi SSE 3.5 mph - N/A   Clear
8:58 AM 60.8 °F 57.2 °F 88% 30.17 in 10.0 mi SE 5.8 mph - N/A   Clear
9:16 AM 62.6 °F 57.2 °F 82% 30.17 in 10.0 mi SSE 6.9 mph - N/A   Clear
9:35 AM 64.4 °F 57.2 °F 77% 30.18 in 10.0 mi SE 6.9 mph - N/A   Clear
9:56 AM 66.2 °F 57.2 °F 73% 30.17 in 10.0 mi SE 8.1 mph - N/A   Clear
10:15 AM 66.2 °F 57.2 °F 73% 30.17 in 10.0 mi SE 9.2 mph - N/A   Clear
10:19 AM 68.0 °F 57.2 °F 68% 30.18 in 10.0 mi SSE 10.4 mph - N/A   Clear
10:38 AM 69.8 °F 57.2 °F 64% 30.18 in 10.0 mi SE 6.9 mph - N/A   Scattered Clouds
10:55 AM 69.8 °F 57.2 °F 64% 30.18 in 10.0 mi SE 8.1 mph - N/A   Mostly Cloudy
11:15 AM 69.8 °F 57.2 °F 64% 30.18 in 10.0 mi SE 12.7 mph - N/A   Overcast
11:16 AM 69.8 °F 57.2 °F 64% 30.18 in 10.0 mi SE 10.4 mph - N/A   Overcast
11:35 AM 71.6 °F 57.2 °F 60% 30.18 in 10.0 mi SE 11.5 mph - N/A   Overcast
11:36 AM 71.6 °F 57.2 °F 60% 30.18 in 10.0 mi SE 11.5 mph - N/A   Overcast
11:58 AM 71.6 °F 57.2 °F 60% 30.18 in 10.0 mi SE 9.2 mph - N/A   Scattered Clouds
12:17 PM 73.4 °F 57.2 °F 57% 30.17 in 10.0 mi SSE 12.7 mph - N/A   Clear
12:36 PM 73.4 °F 59.0 °F 61% 30.17 in 10.0 mi ESE 10.4 mph - N/A   Clear
12:55 PM 73.4 °F 57.2 °F 57% 30.16 in 10.0 mi ESE 11.5 mph 18.4 mph N/A   Clear
1:15 PM 73.4 °F 57.2 °F 57% 30.16 in 10.0 mi SE 11.5 mph - N/A   Clear
1:19 PM 73.4 °F 57.2 °F 57% 30.16 in 10.0 mi ESE 13.8 mph - N/A   Clear
1:37 PM 75.2 °F 59.0 °F 57% 30.15 in 10.0 mi ESE 13.8 mph - N/A   Clear
1:56 PM 75.2 °F 59.0 °F 57% 30.15 in 10.0 mi SE 12.7 mph 17.3 mph N/A   Clear
2:15 PM 75.2 °F 59.0 °F 57% 30.15 in 10.0 mi SE 13.8 mph - N/A   Clear
2:16 PM 75.2 °F 59.0 °F 57% 30.15 in 10.0 mi SE 11.5 mph - N/A   Clear
2:35 PM 75.2 °F 60.8 °F 61% 30.14 in 10.0 mi ESE 9.2 mph 16.1 mph N/A   Clear
2:57 PM 77.0 °F 60.8 °F 57% 30.14 in 10.0 mi SE 11.5 mph - N/A   Clear
3:16 PM 77.0 °F 60.8 °F 57% 30.14 in 10.0 mi SE 10.4 mph - N/A   Clear
3:35 PM 77.0 °F 60.8 °F 57% 30.13 in 10.0 mi SE 10.4 mph - N/A   Clear
3:55 PM 78.8 °F 60.8 °F 54% 30.13 in 10.0 mi SSE 6.9 mph - N/A   Clear
4:18 PM 78.8 °F 60.8 °F 54% 30.13 in 10.0 mi SSE 9.2 mph - N/A   Clear
4:37 PM 78.8 °F 60.8 °F 54% 30.13 in 10.0 mi ESE 12.7 mph - N/A   Clear
4:56 PM 78.8 °F 60.8 °F 54% 30.13 in 10.0 mi SE 12.7 mph - N/A   Clear
5:15 PM 78.8 °F 62.6 °F 57% 30.13 in 10.0 mi ESE 10.4 mph - N/A   Clear
5:16 PM 78.8 °F 62.6 °F 57% 30.12 in 10.0 mi ESE 9.2 mph - N/A   Clear
5:38 PM 77.0 °F 62.6 °F 61% 30.13 in 10.0 mi ESE 10.4 mph - N/A   Clear
5:56 PM 77.0 °F 62.6 °F 61% 30.13 in 10.0 mi SE 11.5 mph 16.1 mph N/A   Clear
6:15 PM 77.0 °F 62.6 °F 61% 30.13 in 10.0 mi ESE 10.4 mph - N/A   Clear
6:16 PM 77.0 °F 62.6 °F 61% 30.13 in 10.0 mi ESE 9.2 mph - N/A   Clear
6:35 PM 75.2 °F 62.6 °F 65% 30.12 in 10.0 mi ESE 9.2 mph - N/A   Clear
6:36 PM 75.2 °F 62.6 °F 65% 30.12 in 10.0 mi ESE 9.2 mph - N/A   Clear
6:55 PM 75.2 °F 62.6 °F 65% 30.12 in 10.0 mi ESE 8.1 mph - N/A   Clear
6:59 PM 75.2 °F 62.6 °F 65% 30.12 in 10.0 mi SE 8.1 mph - N/A   Clear
7:17 PM 73.4 °F 64.4 °F 73% 30.12 in 10.0 mi ESE 5.8 mph - N/A   Clear
7:36 PM 73.4 °F 64.4 °F 73% 30.12 in 10.0 mi ESE 6.9 mph - N/A   Clear
7:55 PM 71.6 °F 62.6 °F 73% 30.12 in 10.0 mi ESE 5.8 mph - N/A   Clear
8:15 PM 69.8 °F 62.6 °F 78% 30.12 in 10.0 mi ESE 5.8 mph - N/A   Clear
8:19 PM 69.8 °F 62.6 °F 78% 30.12 in 10.0 mi ESE 5.8 mph - N/A   Clear
8:37 PM 68.0 °F 62.6 °F 83% 30.13 in 10.0 mi East 5.8 mph - N/A   Clear
8:56 PM 66.2 °F 62.6 °F 88% 30.13 in 10.0 mi East 5.8 mph - N/A   Clear
9:15 PM 66.2 °F 64.4 °F 94% 30.14 in 10.0 mi ESE 6.9 mph - N/A   Clear
9:16 PM 66.2 °F 64.4 °F 94% 30.14 in 10.0 mi ESE 6.9 mph - N/A   Clear
9:35 PM 66.2 °F 62.6 °F 88% 30.14 in 10.0 mi ESE 6.9 mph - N/A   Clear
9:36 PM 66.2 °F 62.6 °F 88% 30.14 in 10.0 mi ESE 6.9 mph - N/A   Clear
9:59 PM 68.0 °F 64.4 °F 88% 30.13 in 10.0 mi ESE 6.9 mph - N/A   Clear
10:16 PM 66.2 °F 62.6 °F 88% 30.14 in 10.0 mi ESE 6.9 mph - N/A   Clear
10:36 PM 66.2 °F 62.6 °F 88% 30.13 in 10.0 mi ESE 6.9 mph - N/A   Clear
10:55 PM 64.4 °F 62.6 °F 94% 30.13 in 10.0 mi ESE 5.8 mph - N/A   Clear
11:15 PM 66.2 °F 62.6 °F 88% 30.13 in 10.0 mi SE 6.9 mph - N/A   Clear
11:19 PM 66.2 °F 62.6 °F 88% 30.13 in 10.0 mi SE 6.9 mph - N/A   Clear
11:37 PM 64.4 °F 62.6 °F 94% 30.13 in 10.0 mi SE 6.9 mph - N/A   Clear
11:56 PM 64.4 °F 62.6 °F 94% 30.14 in 10.0 mi SE 6.9 mph - N/A   Clear